Satellite: DTUSAT-2 Catalog number: 40030 Epoch time: 15022.36620465 Element set: 621 Inclination: 097.9641 deg RA of node: 282.2228 deg Eccentricity: 0.0011441 Arg of perigee: 298.5362 deg Mean anomaly: 061.4659 deg Mean motion: 14.86010183 rev/day Decay rate: 2.458e-05 rev/day^2 Epoch rev: 3212 Checksum: 267
Satellite: ANTELSAT Catalog number: 40034 Epoch time: 15022.34660376 Element set: 638 Inclination: 097.9604 deg RA of node: 277.5064 deg Eccentricity: 0.0059804 Arg of perigee: 226.5367 deg Mean anomaly: 133.0823 deg Mean motion: 14.72138561 rev/day Decay rate: 1.846e-05 rev/day^2 Epoch rev: 3183 Checksum: 296
/EX SB KEPS @ AMSAT $ORB15022.W Orbital Elements 15022.WEATHER
HR AMSAT ORBITAL ELEMENTS FOR WEATHER SATELLITES FROM WA5QGD FORT WORTH,TX January 22, 2015 BID: ORB15022.W TO ALL RADIO AMATEURS BT
Satellite: MET-2/21 Catalog number: 22782 Epoch time: 15021.87372155 Element set: 281 Inclination: 082.5506 deg RA of node: 359.7723 deg Eccentricity: 0.0022421 Arg of perigee: 015.3205 deg Mean anomaly: 047.1594 deg Mean motion: 13.83757423 rev/day Decay rate: 7.4e-07 rev/day^2 Epoch rev: 8036 Checksum: 285
Satellite: OKEAN-4 Catalog number: 23317 Epoch time: 15022.23129808 Element set: 766 Inclination: 082.5361 deg RA of node: 222.4691 deg Eccentricity: 0.0021656 Arg of perigee: 094.0967 deg Mean anomaly: 023.6723 deg Mean motion: 14.86235109 rev/day Decay rate: 1.012e-05 rev/day^2 Epoch rev: 9563 Checksum: 286
Satellite: NOAA-14 Catalog number: 23455 Epoch time: 15022.51603778 Element set: 60 Inclination: 098.7621 deg RA of node: 106.9110 deg Eccentricity: 0.0010469 Arg of perigee: 132.7256 deg Mean anomaly: 352.9120 deg Mean motion: 14.14017161 rev/day Decay rate: 8.0e-07 rev/day^2 Epoch rev: 3494 Checksum: 261
Satellite: NOAA-15 Catalog number: 25338 Epoch time: 15022.53612921 Element set: 500 Inclination: 098.7671 deg RA of node: 021.1313 deg Eccentricity: 0.0009965 Arg of perigee: 226.9294 deg Mean anomaly: 211.5297 deg Mean motion: 14.25552286 rev/day Decay rate: 1.23e-06 rev/day^2 Epoch rev: 86809 Checksum: 297
Satellite: RESURS Catalog number: 25394 Epoch time: 15021.89542325 Element set: 859 Inclination: 098.4463 deg RA of node: 342.4129 deg Eccentricity: 0.0001348 Arg of perigee: 034.3793 deg Mean anomaly: 026.4203 deg Mean motion: 14.24435934 rev/day Decay rate: 3.4e-07 rev/day^2 Epoch rev: 85945 Checksum: 300
Satellite: FENGYUN1 Catalog number: 25730 Epoch time: 15021.89774625 Element set: 348 Inclination: 098.9323 deg RA of node: 346.9568 deg Eccentricity: 0.0018441 Arg of perigee: 209.4086 deg Mean anomaly: 209.7593 deg Mean motion: 14.12912279 rev/day Decay rate: 1.471e-05 rev/day^2 Epoch rev: 80839 Checksum: 334
Satellite: OKEAN-0 Catalog number: 25860 Epoch time: 15020.99488205 Element set: 472 Inclination: 098.0754 deg RA of node: 349.0018 deg Eccentricity: 0.0001953 Arg of perigee: 095.7616 deg Mean anomaly: 304.4072 deg Mean motion: 14.75751053 rev/day Decay rate: 6.96e-06 rev/day^2 Epoch rev: 83427 Checksum: 310
Satellite: NOAA-16 Catalog number: 26536 Epoch time: 15022.44594528 Element set: 997 Inclination: 098.9615 deg RA of node: 088.4397 deg Eccentricity: 0.0009530 Arg of perigee: 284.4172 deg Mean anomaly: 075.5942 deg Mean motion: 14.13070881 rev/day Decay rate: 3.7e-07 rev/day^2 Epoch rev: 73907 Checksum: 339
Satellite: NOAA-17 Catalog number: 27453 Epoch time: 15022.50849725 Element set: 893 Inclination: 098.3289 deg RA of node: 015.8172 deg Eccentricity: 0.0010726 Arg of perigee: 247.4560 deg Mean anomaly: 112.5486 deg Mean motion: 14.24845088 rev/day Decay rate: 5.7e-07 rev/day^2 Epoch rev: 65391 Checksum: 324
Satellite: NOAA-18 Catalog number: 28654 Epoch time: 15022.55252462 Element set: 412 Inclination: 099.1733 deg RA of node: 011.7357 deg Eccentricity: 0.0014363 Arg of perigee: 013.0265 deg Mean anomaly: 088.3233 deg Mean motion: 14.12138232 rev/day Decay rate: 4.8e-07 rev/day^2 Epoch rev: 49852 Checksum: 277
Satellite: NOAA-19 Catalog number: 33591 Epoch time: 15022.49332190 Element set: 543 Inclination: 098.9731 deg RA of node: 332.1681 deg Eccentricity: 0.0013473 Arg of perigee: 217.4758 deg Mean anomaly: 278.4709 deg Mean motion: 14.11857561 rev/day Decay rate: 3.03e-06 rev/day^2 Epoch rev: 30693 Checksum: 310
/EX SB KEPS @ AMSAT $ORB15022.M Orbital Elements 15022.MISC
HR AMSAT ORBITAL ELEMENTS FOR MANNED AND MISCELLANEOUS SATELLITES FROM WA5QGD FORT WORTH,TX January 22, 2015 BID: ORB15022.M TO ALL RADIO AMATEURS BT
Satellite: HUBBLE Catalog number: 20580 Epoch time: 15022.29479478 Element set: 205 Inclination: 028.4716 deg RA of node: 035.6591 deg Eccentricity: 0.0003236 Arg of perigee: 110.5756 deg Mean anomaly: 003.6556 deg Mean motion: 15.06667539 rev/day Decay rate: 2.544e-05 rev/day^2 Epoch rev: 15778 Checksum: 302
Satellite: ISS Catalog number: 25544 Epoch time: 15022.50287037 Element set: 762 Inclination: 051.6483 deg RA of node: 091.3892 deg Eccentricity: 0.0005643 Arg of perigee: 287.4381 deg Mean anomaly: 269.2229 deg Mean motion: 15.53554560 rev/day Decay rate: 1.5268e-04 rev/day^2 Epoch rev: 92536 Checksum: 312
Satellite: CO-58 Catalog number: 28895 Epoch time: 15021.24554721 Element set: 974 Inclination: 097.8219 deg RA of node: 216.7037 deg Eccentricity: 0.0017872 Arg of perigee: 045.5275 deg Mean anomaly: 314.7386 deg Mean motion: 14.62434368 rev/day Decay rate: 7.43e-06 rev/day^2 Epoch rev: 49211 Checksum: 333
Satellite: FALCON Catalog number: 30776 Epoch time: 15021.57752280 Element set: 57 Inclination: 035.4269 deg RA of node: 197.8639 deg Eccentricity: 0.0002387 Arg of perigee: 047.4823 deg Mean anomaly: 004.6760 deg Mean motion: 15.20831888 rev/day Decay rate: 9.651e-05 rev/day^2 Epoch rev: 43394 Checksum: 319
Satellite: MAST Catalog number: 31126 Epoch time: 15021.88739983 Element set: 257 Inclination: 097.9428 deg RA of node: 356.7505 deg Eccentricity: 0.0092012 Arg of perigee: 033.0633 deg Mean anomaly: 026.9012 deg Mean motion: 14.55747288 rev/day Decay rate: 8.74e-06 rev/day^2 Epoch rev: 41220 Checksum: 301
Satellite: CAPE1 Catalog number: 31130 Epoch time: 15021.46062270 Element set: 262 Inclination: 097.9644 deg RA of node: 353.3000 deg Eccentricity: 0.0099026 Arg of perigee: 053.2903 deg Mean anomaly: 307.7341 deg Mean motion: 14.55073116 rev/day Decay rate: 1.115e-05 rev/day^2 Epoch rev: 41154 Checksum: 245
Satellite: COMPASS Catalog number: 32787 Epoch time: 15022.09758362 Element set: 159 Inclination: 097.6718 deg RA of node: 074.2052 deg Eccentricity: 0.0013788 Arg of perigee: 172.1689 deg Mean anomaly: 187.9746 deg Mean motion: 14.89616423 rev/day Decay rate: 2.462e-05 rev/day^2 Epoch rev: 36475 Checksum: 344
Satellite: AAUSAT2 Catalog number: 32788 Epoch time: 15022.12065224 Element set: 146 Inclination: 097.6728 deg RA of node: 075.5062 deg Eccentricity: 0.0013305 Arg of perigee: 169.9620 deg Mean anomaly: 190.1867 deg Mean motion: 14.90520957 rev/day Decay rate: 3.353e-05 rev/day^2 Epoch rev: 36483 Checksum: 302
Satellite: DO-64 Catalog number: 32789 Epoch time: 15022.22416788 Element set: 199 Inclination: 097.6921 deg RA of node: 084.4842 deg Eccentricity: 0.0011713 Arg of perigee: 152.6843 deg Mean anomaly: 243.2536 deg Mean motion: 14.97190903 rev/day Decay rate: 7.345e-05 rev/day^2 Epoch rev: 36522 Checksum: 326
Satellite: CO-66 Catalog number: 32791 Epoch time: 15021.59954946 Element set: 141 Inclination: 097.6715 deg RA of node: 071.9833 deg Eccentricity: 0.0014398 Arg of perigee: 178.5781 deg Mean anomaly: 181.5480 deg Mean motion: 14.87909384 rev/day Decay rate: 2.319e-05 rev/day^2 Epoch rev: 36451 Checksum: 351
Satellite: RS-30 Catalog number: 32953 Epoch time: 15022.47570837 Element set: 666 Inclination: 082.5030 deg RA of node: 064.8628 deg Eccentricity: 0.0019193 Arg of perigee: 041.3765 deg Mean anomaly: 318.8766 deg Mean motion: 12.43055291 rev/day Decay rate: 1.0e-07 rev/day^2 Epoch rev: 30250 Checksum: 288
Satellite: METEOR-M Catalog number: 35865 Epoch time: 15022.27554826 Element set: 274 Inclination: 098.5204 deg RA of node: 067.7046 deg Eccentricity: 0.0002369 Arg of perigee: 164.8063 deg Mean anomaly: 195.3190 deg Mean motion: 14.21982628 rev/day Decay rate: 1.43e-06 rev/day^2 Epoch rev: 27747 Checksum: 311
Satellite: RS-38 Catalog number: 35869 Epoch time: 15022.33683730 Element set: 181 Inclination: 098.5141 deg RA of node: 067.4657 deg Eccentricity: 0.0004506 Arg of perigee: 167.1617 deg Mean anomaly: 192.9671 deg Mean motion: 14.22265456 rev/day Decay rate: 7.8e-07 rev/day^2 Epoch rev: 27752 Checksum: 323
Satellite: JUGNU Catalog number: 37839 Epoch time: 15022.34678215 Element set: 778 Inclination: 019.9630 deg RA of node: 006.5866 deg Eccentricity: 0.0018768 Arg of perigee: 239.1734 deg Mean anomaly: 262.3951 deg Mean motion: 14.12409372 rev/day Decay rate: 4.31e-06 rev/day^2 Epoch rev: 16957 Checksum: 322
Satellite: SRMSAT Catalog number: 37841 Epoch time: 15021.22246140 Element set: 782 Inclination: 019.9736 deg RA of node: 037.1138 deg Eccentricity: 0.0011861 Arg of perigee: 157.3301 deg Mean anomaly: 281.9052 deg Mean motion: 14.10432318 rev/day Decay rate: 3.93e-06 rev/day^2 Epoch rev: 16917 Checksum: 267
Satellite: RAX-2 Catalog number: 37853 Epoch time: 15021.23295133 Element set: 20 Inclination: 101.7058 deg RA of node: 160.4180 deg Eccentricity: 0.0203612 Arg of perigee: 144.5579 deg Mean anomaly: 262.9766 deg Mean motion: 14.93530215 rev/day Decay rate: 8.808e-05 rev/day^2 Epoch rev: 17515 Checksum: 281
Satellite: AUBIESAT Catalog number: 37854 Epoch time: 15021.33743569 Element set: 19 Inclination: 101.7098 deg RA of node: 163.3024 deg Eccentricity: 0.0200495 Arg of perigee: 140.0901 deg Mean anomaly: 280.6689 deg Mean motion: 14.95372554 rev/day Decay rate: 1.1547e-04 rev/day^2 Epoch rev: 17525 Checksum: 295
